Location: Saalfelden+am+Steinernen+Meer
(47.4274°N, 12.8411°E)
Time: 13:55:49
(UTC+01:00)

N. Korean satellite - Visible Passes

Search period start: 16 January 2018 00:00
Search period end: 26 January 2018 00:00
Orbit: 459 x 515 km, 97.2° (Epoch: 16 January)

Date Brightness Start Highest point End Pass type
(mag) Time Alt. Az. Time Alt. Az. Time Alt. Az.
16 Jan 8.2 06:31:09 10° NNE 06:34:22 36° E 06:37:34 10° SSE visible
16 Jan 9.0 18:43:59 10° SSW 18:47:03 25° W 18:50:06 10° NW visible
17 Jan 9.5 06:08:00 10° NE 06:10:35 19° E 06:13:07 10° SE visible
17 Jan 7.6 18:19:47 10° S 18:23:18 48° W 18:26:47 10° NNW visible
18 Jan 10.2 05:46:02 10° ENE 05:46:42 10° E 05:47:21 10° E visible
18 Jan 6.5 17:56:01 10° SSE 17:59:37 85° ENE 18:03:12 10° NNW visible
19 Jan 6.8 06:53:28 10° NNE 06:56:56 72° ESE 07:00:21 10° S visible
19 Jan 6.9 17:32:35 10° SE 17:36:01 43° ENE 17:39:24 10° N visible
19 Jan 9.9 19:07:42 10° SW 19:09:44 14° W 19:11:46 10° WNW visible
20 Jan 8.3 06:30:00 10° NNE 06:33:12 35° E 06:36:23 10° SSE visible
20 Jan 8.9 18:42:51 10° SSW 18:45:54 26° W 18:48:56 10° NW visible
21 Jan 9.5 06:06:52 10° NE 06:09:24 19° E 06:11:55 10° SE visible
21 Jan 7.6 18:18:40 10° S 18:22:09 49° W 18:25:36 10° NNW visible
22 Jan 10.3 05:45:05 10° E 05:45:30 10° E 05:45:56 10° E visible
22 Jan 6.4 17:54:53 10° SSE 17:58:27 83° ENE 18:02:00 10° N visible
23 Jan 6.8 06:52:17 10° NNE 06:55:44 70° ESE 06:59:10 10° S visible
23 Jan 6.9 17:31:28 10° SE 17:34:50 42° ENE 17:38:11 10° N visible
23 Jan 9.9 19:06:32 10° SW 19:08:33 14° W 19:10:35 10° NW visible
24 Jan 8.4 06:28:48 10° NNE 06:32:00 34° E 06:35:11 10° SSE visible
24 Jan 8.9 18:41:42 10° SSW 18:44:43 26° W 18:47:43 10° NW visible
25 Jan 9.6 06:05:41 10° NE 06:08:11 19° E 06:10:42 10° SE visible
25 Jan 7.5 18:17:29 10° S 18:20:57 50° W 18:24:22 10° NNW visible
